Regional Weather Roundup
Issued by NWS

Home | Current Version | Previous Version | Text Only | Print | Product List | Glossary On
Versions: 1 2 3 4 5 6 7 8 9 10 11 12 13 14 15 16 17 18 19 20 21 22 23 24 25 26 27 28 29 30 31 32 33 34 35 36 37 38 39 40 41 42 43 44 45 46 47 48 49 50
000
ASUS43 KMPX 300501
RWRMN
WEATHER ROUNDUP FOR MINNESOTA
NATIONAL WEATHER SERVICE TWIN CITIES/CHANHASSEN MN
1200 AM CDT SAT MAY 30 2015


NOTE: "FAIR" INDICATES FEW OR NO CLOUDS BELOW 12,000 FEET WITH NO
SIGNIFICANT WEATHER AND/OR OBSTRUCTIONS TO VISIBILITY. N/A MEANS
CURRENT SKY AND/OR WEATHER CONDITIONS ARE NOT AVAILABLE.

MNZ060>063-068>070-300600-
   Twin Cities Metro

CITY           SKY/WX    TMP DP  RH WIND       PRES   REMARKS
TWIN CITIES    CLOUDY    54  50  86 N14       30.06R
ST PAUL        CLOUDY    55  51  86 N12       30.06R
CRYSTAL        CLOUDY    55  48  77 N9        30.06R
BLAINE         CLOUDY    55  52  88 N9G17     30.07R
LAKEVILLE      LGT RAIN  52  50  93 N8G17     30.04S
EDEN PRAIRIE   CLOUDY    54  49  83 N10       30.05R
SOUTH ST PAUL  CLOUDY    55  52  92 N10G20    30.05R
LAKE ELMO      CLOUDY    54  50  87 N12G18    30.06R
$$
MNZ001>005-007-008-013>017-022>024-027-028-300600-
   Northwest Minnesota

CITY           SKY/WX    TMP DP  RH WIND       PRES   REMARKS
BEMIDJI        CLEAR     44  34  68 N13       30.21R
HALLOCK        CLEAR     37  27  65 N9        30.34R
ROSEAU         CLEAR     39  30  70 N13       30.29R
WARROAD        CLEAR     37  32  81 NW15      30.28R
THIEF RVR FALL CLEAR     39  28  65 N16G22    30.29R
CROOKSTON      CLEAR     39  30  70 N14       30.31R
FOSSTON        PTCLDY    37  30  75 N15       30.27R
DETROIT LAKES  PTCLDY    45  36  70 N10G20    30.24R
MOORHEAD       MOCLDY    45  36  70 N15       30.27R
PARK RAPIDS    PTCLDY    48  35  60 N14G21    30.19R
MAHNOMEN       FAIR      42  32  68 N17G23    30.25R
$$
MNZ006-009>011-018-025>026-300600-
   North Central Minnesota

CITY           SKY/WX    TMP DP  RH WIND       PRES   REMARKS
BAUDETTE       CLOUDY    45  32  60 N17       30.22R
FLAG ISLAND    CLOUDY    45  32  61 N23       30.26R
INTL FALLS     CLEAR     40  33  76 NW7       30.18R
WASKISH        MOCLDY    45  37  76 NW12      30.22R
BIG FORK       MOCLDY    43  36  75 CALM      30.19R
LONGVILLE      CLOUDY    48  39  71 N8        30.17R
GRAND RAPIDS   CLOUDY    46  36  66 N13       30.16R
CRANE LAKE     CLOUDY    46  36  66 NW9       30.17R
ORR            MOCLDY    45  34  65 NW2       30.13R
COOK           CLOUDY    46  37  71 NW8       30.15R
WALKER         FAIR      45  36  71 N5        30.19R
$$
MNZ012-019>021-037-300600-
   Northeast Minnesota

CITY           SKY/WX    TMP DP  RH WIND       PRES   REMARKS
DULUTH         CLOUDY    48  40  73 N8        30.10R
HIBBING        CLOUDY    47  37  68 N13       30.14R
EVELETH        CLOUDY    46  37  71 N7        30.13R
DULUTH HARBOR  CLOUDY    52  45  76 N9        30.11R
TWO HARBORS    CLOUDY    52  45  76 CALM      30.07S
SILVER BAY     CLOUDY    50  43  76 NW6       30.07R
GRAND MARAIS     N/A     53  42  66 N18G29    30.01R
G MARAIS ARPRT CLOUDY    46  37  71 NW10G20   30.05S
$$
MNZ029>031-032-039>041-046>048-054>057-064-300600-
   West Central Minnesota

CITY           SKY/WX    TMP DP  RH WIND       PRES   REMARKS
FERGUS FALLS   MOCLDY    46  36  66 N12       30.22R
WHEATON        MOCLDY    45  37  76 NW16G23   30.24R
MORRIS         PTCLDY    48  43  81 NW12      30.18R
ALEXANDRIA     FAIR      49  42  77 N14       30.17R
ELBOW LAKE     FAIR      47  40  76 N13       30.19R
WADENA         PTCLDY    46  37  71 N14       30.17S
GLENWOOD       CLEAR     48  43  81 N7        30.16R
APPLETON       PTCLDY    48  43  81 N12       30.17R
BENSON         PTCLDY    48  43  81 N9        30.16R
ORTONVILLE     PTCLDY    46  37  71 N16       30.19S
MADISON        PTCLDY    48  41  76 N18       30.17R
WILLMAR        FAIR      52  46  82 N10       30.15R
$$
MNZ033>034-036-042>043-049>051-058-059-300600-
   Central Minnesota

CITY           SKY/WX    TMP DP  RH WIND       PRES   REMARKS
ST CLOUD       PTCLDY    50  43  77 N10G20    30.11R
SAUK CENTRE    FAIR      49  40  69 N10       30.14S
PAYNESVILLE    PTCLDY    46  43  90 NW7       30.13S
AITKIN         MOCLDY    48  39  71 N9        30.14R
PINE RIVER     PTCLDY    48  37  66 N10G16    30.19R
BRAINERD       PTCLDY    49  39  68 N13       30.15R
STAPLES        PTCLDY    46  39  76 N7        30.17R
LONG PRAIRIE   FAIR      46  37  71 NW9       30.15R
LITTLE FALLS   PTCLDY    50  37  62 N7        30.14R
LITCHFIELD     PTCLDY    52  46  82 N9        30.11S
BUFFALO        MOCLDY    52  45  75 N10       30.10R
MAPLE LAKE     MOCLDY    52  47  82 NW10      30.11R
$$
MNZ037-044-045-052-053-300600-
   East Central Minnesota

CITY           SKY/WX    TMP DP  RH WIND       PRES   REMARKS
PRINCETON      MOCLDY    52  45  76 N8        30.10R
MORA           MOCLDY    50  43  76 NE7       30.13R
CAMBRIDGE      CLOUDY    54  45  71 N6        30.08R
RUSH CITY      CLOUDY    51  45  79 N8        30.10R
MOOSE LAKE     MOCLDY    48  37  66 N7        30.10S
HINCKLEY       FAIR      50  43  76 N9        30.11R
CLOQUET        CLOUDY    46  39  76 NW6       30.12R
MCGREGOR       CLOUDY    50  39  66 N10G17    30.14R
$$
MNZ071>073-080-081-089-090-097-098-300600-
   Southwest Minnesota

CITY           SKY/WX    TMP DP  RH WIND       PRES   REMARKS
MONTEVIDEO     PTCLDY    48  45  87 N10       30.16R
GRANITE FALLS  PTCLDY    49  44  83 NW10      30.16R
CANBY          MOCLDY    48  42  78 N15       30.18R
MARSHALL       MOCLDY    48  39  71 N17       30.14S
REDWOOD FALLS  PTCLDY    51  47  86 NW8       30.12R
OLIVIA         CLEAR     48  43  81 N9        30.11S
PIPESTONE      MOCLDY    48  43  81 N10G18    30.13S
WINDOM         CLOUDY    52  48  87 N15G21    30.10R
WORTHINGTON    CLOUDY    50  43  76 N20       30.10S
JACKSON        CLOUDY    52  50  93 VRB17G23  30.09R
TRACY          PTCLDY    49  46  88 N13       30.14R
SLAYTON        PTCLDY    47  45  90 N20G26    30.13R
$$
MNZ065>067-074>077-082>085-091>093-300600-
   South Central Minnesota

CITY           SKY/WX    TMP DP  RH WIND       PRES   REMARKS
MANKATO        CLOUDY    54  48  82 N18G25    30.05S
NEW ULM        CLOUDY    52  48  87 N10       30.09R
ST JAMES       CLOUDY    54  50  87 NW12G21   30.10R
FAIRMONT       CLOUDY    52  46  82 N20G26    30.06R
GLENCOE        CLOUDY    54  48  82 N12G23    30.08R
FARIBAULT      DRIZZLE   54  52  94 N12       30.04R
OWATONNA       DRIZZLE   54  52  94 N17G23    30.02S
WASECA         CLOUDY    52  50  93 N18       30.04R
ALBERT LEA     RAIN      55  55 100 N18G25    30.00R
$$
MNZ078>079-086>088-094>096-300600-
   Southeast Minnesota

CITY           SKY/WX    TMP DP  RH WIND       PRES   REMARKS
ROCHESTER      LGT RAIN  57  56  96 N22G28    29.98R
RED WING       LGT RAIN  55  54  94 N14G22    30.00R
STANTON        DRIZZLE   55  51  86 N16G24    30.02R
DODGE CENTER   LGT RAIN  55  54  94 N17G25    30.00R
WINONA         RAIN      63  63 100 NW7       29.93R
AUSTIN         CLOUDY    55  54  94 N13G22    29.98R
PRESTON        CLOUDY    62  61  96 N7        29.94R
$$
ABBREVIATIONS USED IN REMARKS
   TC - TEMPERATURES IN CELSIUS
  WCI - WIND CHILL INDEX
   HX - HEAT INDEX
  VSB - VISIBILITY
$$



USA.gov is the U.S. government's official web portal to all federal, state and local government web resources and services.